www.pogodaiklimat.ru

Погода и климат >> Архив погоды >> Россия >> Дагестан >> Бабаюрт


ПОГОДА в Бабаюрте

  • Прогноз погоды в Бабаюрте
  • Монитор погоды в Бабаюрте

АРХИВ ПОГОДЫ в Бабаюрте

Время (UTC), дата Ветер
(напр.,м/с)
 
Видим.   Явления Облачность Т
(С)
Тd
(С)
f
(%)
Тe
(С)
Тes
(С)
Комфортность P
(гПа)
Po
(гПа)
Тmin
(С)
Tmax
(С)
R
(мм)
R24
(мм)
S
(см)
18 16.07 З 2 20 км ясно +26.4 +17.0 56 +30 +30 душно 1004.9 1005.1
21 16.07 З 1 20 км ясно +22.8 +18.1 75 +28 +28 душно 1006.2 1006.4
00 17.07 З 2 20 км ясно +21.4 +16.5 74 +25 +25 комфорт 1006.9 1007.1 +20.6
03 17.07 З 4 20 км ясно +21.8 +16.8 73 +26 +27 душно 1009.3 1009.5 +20.6
06 17.07 З 4 20 км 8/0
[Ac lent]
+25.7 +14.5 50 +28 +31 жарко 1009.2 1009.4
09 17.07 З 4 20 км ясно +28.9 +14.7 42 +31 +44 жарко 1007.9 1008.1
12 17.07 СВ 1 20 км ясно +30.6 +13.8 36 +32 +45 жарко 1006.9 1007.1
15 17.07 ЮЗ 1 20 км 8/0
[Cc]
+30.6 +13.7 36 +32 +33 жарко 1006.3 1006.5 +31.7
18 17.07 ЮЗ 2 20 км 8/0
[Cc]
+24.7 +16.1 59 +28 +28 душно 1007.0 1007.2
21 17.07 ЮЗ 2 20 км ясно +23.5 +16.6 65 +27 +27 душно 1006.7 1006.9
00 18.07 ЮЗ 1 20 км 8/0
[Ac cuf]
+22.3 +16.6 70 +27 +27 душно 1005.8 1005.9
03 18.07 З 1 20 км ясно +23.2 +17.2 69 +28 +30 душно 1006.8 1007.0 +21.9
06 18.07 В 4 20 км ясно +29.3 +16.6 46 +33 +41 душно 1005.9 1006.0
09 18.07 В 5 20 км ясно +32.8 +12.5 29 +33 +43 жарко 1004.9 1005.1
12 18.07 СВ 4 20 км ясно +33.3 +13.3 30 +34 +42 очень
жарко
1004.3 1004.5
15 18.07 СВ 2 20 км ясно +30.2 +14.0 37 +32 +33 жарко 1005.4 1005.5 +33.7
18 18.07 В 1 20 км ясно +24.5 +17.3 64 +28 +28 душно 1007.4 1007.6
21 18.07 СЗ 1 20 км ясно +24.4 +17.8 67 +29 +29 душно 1007.9 1008.1
00 19.07 ЮЗ 1 20 км ясно +23.1 +16.9 68 +28 +28 душно 1008.4 1008.6
03 19.07 З 2 20 км 10/10 600 м
[Sc]
+21.9 +18.3 80 +27 +27 душно 1009.9 1010.1 +21.7
06 19.07 З 3 20 км 9/0
[Cc]
+26.4 +19.5 66 +32 +40 очень
душно
1011.4 1011.6
09 19.07 З 3 20 км ясно +30.3 +18.3 49 +35 +51 опасность
солнечного
удара
1011.5 1011.7
12 19.07 С 1 20 км ясно +33.8 +13.2 29 +35 +48 очень
жарко
1010.7 1010.9
15 19.07 штиль 0 20 км 3/0
[Ac lent]
+33.0 +13.7 31 +34 +35 очень
жарко
1011.0 1011.2 +34.3
18 19.07 ЮЗ 2 20 км 3/0
[Ac lent]
+26.1 +18.4 63 +31 +31 очень
душно
1013.1 1013.2
21 19.07 ЮЗ 2 20 км 9/0
[Cc]
+25.1 +18.4 66 +30 +30 душно 1013.8 1014.0
00 20.07 З 2 20 км 9/0
[Ci ing]
+23.0 +17.4 71 +28 +28 душно 1015.2 1015.4
03 20.07 З 2 20 км 10/0
[Ac As]
+22.8 +17.3 71 +28 +28 душно 1016.8 1017.0 +22.5
06 20.07 З 3 20 км 8/0
[Cc]
+23.8 +17.7 69 +28 +36 душно 1017.2 1017.4
09 20.07 СЗ 2 20 км ясно +30.6 +17.6 46 +35 +53 опасность
солнечного
удара
1016.7 1016.9
12 20.07 С 2 20 км 6/0
[Ci]
+32.4 +17.1 40 +36 +46 очень
душно
1015.8 1016.0
15 20.07 СВ 1 20 км 3/0
[Cc]
+31.8 +15.5 37 +34 +35 душно 1015.7 1015.9 +32.7
18 20.07 ЮВ 2 20 км ясно +26.6 +19.8 66 +32 +32 очень
душно
1015.8 1017.0
21 20.07 ЮВ 1 20 км ясно +24.5 +19.7 75 +30 +30 очень
душно
1016.0 1016.2
00 21.07 штиль 0 20 км ясно +21.8 +19.0 84 +27 +27 душно 1015.8 1016.0
03 21.07 С 1 20 км 8/0
[Cc]
+23.1 +18.3 74 +29 +30 очень
душно
1016.2 1016.4 +21.4
06 21.07 В 4 20 км ясно +30.7 +16.1 41 +34 +42 очень
душно
1015.1 1015.2
09 21.07 В 6-11
{11}
20 км 3/0
[Ci sp]
+32.5 +13.5 32 +34 +41 очень
жарко
1013.3 1013.5
12 21.07 В 5-11
{13}
20 км ясно +32.5 +15.2 35 +35 +40 душно 1011.9 1012.1
15 21.07 В 4
{12}
20 км 4/0
[Ac cuf]
+29.5 +14.8 41 +32 +32 душно 1011.2 1011.4 +33.2
18 21.07 В 3 20 км 10/0
[Ac As]
+26.1 +18.7 64 +31 +31 очень
душно
1011.2 1011.4
21 21.07 СВ 2 20 км 9/0
[Cs]
+24.8 +21.1 80 +31 +31 очень
душно
1010.7 1010.9
00 22.07 С 1 20 км 8/0
[Ci ing]
+23.6 +20.2 81 +29 +29 душно 1010.6 1010.8
03 22.07 З 2 20 км 9/0
[Ac cuf]
+23.9 +20.3 80 +30 +30 очень
душно
1011.6 1011.8 +23.3
06 22.07 З 3 20 км 10/10 600 м
[Sc]
+26.0 +20.1 70 +32 +32 очень
душно
1011.4 1011.6
09 22.07 З 3 20 км 8/0
[Ac cast Ci sp]
+31.7 +17.5 43 +36 +45 очень
душно
1010.6 1010.8
12 22.07 С 2 20 км 9/9 600 м
[Sc]
+32.8 +15.6 36 +35 +36 душно 1011.0 1011.2
15 22.07 ЮЗ 3 20 км 9/9 600 м
[Sc]
+28.2 +17.9 54 +33 +33 очень
душно
1012.5 1012.6 +33.7
18 22.07 З 1 20 км 10/0
[Ac und]
+25.7 +17.1 59 +30 +30 душно 1014.3 1014.5
21 22.07 Ю 2 20 км в посл. час гроза 10/10 300 м
[Cb cap]
+22.2 +18.0 77 +27 +27 душно 1013.7 1013.8
00 23.07 ЮЗ 1 20 км 9/0
[Cc]
+20.6 +17.6 83 +25 +25 комфорт 1014.2 1014.4
03 23.07 ЮЗ 1 20 км 8/3 600 м
[Sc diur, vesp Cc]
+20.8 +17.6 82 +26 +27 душно 1014.0 1014.2 +20.2 0.5
06 23.07 С 1 20 км {гроза} 8/8 600 м
[Sc]
+25.2 +19.5 71 +31 +33 очень
душно
1012.2 1012.4
09 23.07 СВ 3 20 км {ливн. осадки} ясно +29.2 +18.9 54 +35 +50 очень
душно
1010.9 1011.1
12 23.07 В 4 20 км ясно +30.1 +18.1 49 +35 +42 очень
душно
1010.1 1010.3

 

Местоположение метеостанции Бабаюрт (Дагестан, Россия): широта 43.60 долгота 46.78 высота над уровнем моря -2 м.

В архиве по умолчанию представлена погода в Бабаюрте за последнюю неделю. Архивные данные за месяц целиком и за предыдущие месяцы, начиная с января 2011 года, Вы можете получить, выбрав интересующий диапазон дат из раскрывающегося списка и нажав кнопку "Ввод!".


*Определитесь, кто Вы:
робот инопланетянин человек

Внимание! Время в таблицах - всемирное. Для получения местного времени необходимо прибавить поправку, которая равна 3 ч.

Смотрите также архив погоды в соседних городах и на ближайших метеорологических станциях:

Погода в Кизляре (Дагестан, Россия) (26 км)
Погода в Шелковской (Чечня, Россия) (34 км)
Погода в Хасавюрте (Дагестан, Россия) (42 км)
Погода в Гудермесе (Чечня, Россия) (60 км)
Погода в Махачкале (Дагестан, Россия) (86 км)
Погода в Кочубее (Дагестан, Россия) (91 км)
Погода в Буйнакске (Дагестан, Россия) (91 км)
Погода в Терекли-Мектебе (Дагестан, Россия) (93 км)
Погода в Грозном (Чечня, Россия) (94 км)
Погода на Острове Тюлений (Дагестан, Россия) (112 км)

Пояснения к столбцам:

Ветер - указаны скорость ветра в м/с - средняя за 10 мин, порывы в срок и между сроками (в фигурных скобках) и направление, откуда дует ветер: С - северный, СВ - северо-восточный, В - восточный, ЮВ - юго-восточный, Ю - южный, ЮЗ - юго-западный, З - западный, СЗ - северо-западный.
Видимость - горизонтальная дальность видимости в метрах или километрах. При видимости от 1 до 10 км при отсутствии осадков обычно наблюдается дымка, при ухудшении видимости до 1 км и менее - туман. В сухую погоду видимость может ухудшаться дымом, пылью или мглою.
Явления - указаны атмосферные явления, наблюдавшиеся в срок или в последний час перед сроком; фигурными скобками обозначены явления, наблюдавшиеся между сроками (за 1-3 часа до срока); квадратными скобками обозначены град или гололедные отложения с указанием их диаметра в мм.
Облачность - указаны через наклонную черту общая и нижняя облачность в баллах и высота нижней границы облаков в метрах; квадратными скобками обозначены формы облаков: Ci - перистые, Cs - перисто-слоистые, Cc - перисто-кучевые, Ac - высококучевые, As - высокослоистые, Sc - слоисто-кучевые, Ns - слоисто-дождевые, Cu - кучевые, Cb - кучево-дождевые. Подробнее классификацию облаков см. в Атласе облаков (PDF).
T - Температура воздуха - температура, измеренная на высоте 2 м над землей.
Td - Температура точки росы - температура, при понижении до которой содержащийся в воздухе водяной пар достигнет насыщения.
f - Относительная влажность воздуха - влажноcть воздуха, измеренная на высоте 2 м над землей.
Te - Эффективная температура - температура, которую ощущает одетый по сезону человек в тени. Характеристика душности погоды. При расчете учитывается влияние влажности воздуха и скорости ветра на теплоощущения человека.
Tes - Эффективная температура на солнце - температура, которую ощущает человек, с поправкой на солнечный нагрев. Характеристика знойности погоды. Зависит от высоты солнца над горизонтом, облачности и скорости ветра. Ночью, в пасмурную погоду, а также при ветре 12 м/с и более поправка равна нулю.
P - Атмосферное давление - приведенное к уровню моря атмосферное давление.
Po - Атмосферное давление - измеренное на уровне метеостанции атмосферное давление.
Tmin - Минимальная температура - минимум температуры воздуха на высоте 2 м над землей.
Tmax - Максимальная температура - максимум температуры воздуха на высоте 2 м над землей.
R - Количество осадков - Количество выпавших осадков за период времени, мм. При наведении курсора мыши на число - период времени, за который выпало указанное количество осадков.
R24 - Количество осадков - Количество выпавших осадков за 24 часа, мм.
S - Снежный покров - Высота снежного покрова, см. При наведении курсора мыши на число - состояние снежного покрова и степень покрытия местности в баллах.